Year,Month,Day,Hour,Minute,Value (Times are PST for windspeed in km/hr)
2018,12,22,00,00,8.20
2018,12,22,00,01,10.40
2018,12,22,00,02,10.80
2018,12,22,00,03,7.90
2018,12,22,00,04,6.20
2018,12,22,00,05,4.90
2018,12,22,00,06,12.60
2018,12,22,00,07,10.10
2018,12,22,00,08,11.00
2018,12,22,00,09,7.60
2018,12,22,00,10,1.30
2018,12,22,00,11,5.50
2018,12,22,00,12,6.00
2018,12,22,00,13,6.50
2018,12,22,00,14,9.20
2018,12,22,00,15,7.70
2018,12,22,00,16,7.30
2018,12,22,00,17,12.40
2018,12,22,00,18,9.80
2018,12,22,00,19,7.10
2018,12,22,00,20,14.30
2018,12,22,00,21,8.10
2018,12,22,00,22,5.20
2018,12,22,00,23,7.70
2018,12,22,00,24,7.30
2018,12,22,00,25,2.00
2018,12,22,00,26,5.00
2018,12,22,00,27,7.50
2018,12,22,00,28,4.30
2018,12,22,00,29,5.00
2018,12,22,00,30,12.50
2018,12,22,00,31,9.80
2018,12,22,00,32,12.90
2018,12,22,00,33,11.90
2018,12,22,00,34,10.90
2018,12,22,00,35,6.00
2018,12,22,00,36,2.50
2018,12,22,00,37,1.40
2018,12,22,00,38,0.00
2018,12,22,00,39,1.10
2018,12,22,00,40,2.50
2018,12,22,00,41,9.60
2018,12,22,00,42,1.80
2018,12,22,00,43,11.80
2018,12,22,00,44,8.60
2018,12,22,00,45,5.70
2018,12,22,00,46,10.10
2018,12,22,00,47,9.30
2018,12,22,00,48,2.10
2018,12,22,00,49,3.30
2018,12,22,00,50,7.00
2018,12,22,00,51,11.30
2018,12,22,00,52,10.50
2018,12,22,00,53,12.00
2018,12,22,00,54,9.60
2018,12,22,00,55,1.30
2018,12,22,00,56,7.10
2018,12,22,00,57,5.70
2018,12,22,00,58,2.00
2018,12,22,00,59,8.50
2018,12,22,01,00,7.70
2018,12,22,01,01,10.70
2018,12,22,01,02,4.10
2018,12,22,01,03,0.30
2018,12,22,01,04,16.40
2018,12,22,01,05,11.00
2018,12,22,01,06,13.30
2018,12,22,01,07,17.10
2018,12,22,01,08,15.80
2018,12,22,01,09,16.00
2018,12,22,01,10,14.50
2018,12,22,01,11,15.50
2018,12,22,01,12,15.60
2018,12,22,01,13,10.30
2018,12,22,01,14,12.50
2018,12,22,01,15,4.40
2018,12,22,01,16,4.90
2018,12,22,01,17,1.90
2018,12,22,01,18,1.30
2018,12,22,01,19,5.30
2018,12,22,01,20,7.50
2018,12,22,01,21,6.80
2018,12,22,01,22,6.00
2018,12,22,01,23,8.10
2018,12,22,01,24,10.30
2018,12,22,01,25,9.20
2018,12,22,01,26,6.80
2018,12,22,01,27,9.30
2018,12,22,01,28,13.00
2018,12,22,01,29,16.70
2018,12,22,01,30,9.10
2018,12,22,01,31,14.10
2018,12,22,01,32,13.20
2018,12,22,01,33,10.30
2018,12,22,01,34,8.30
2018,12,22,01,35,7.90
2018,12,22,01,36,9.70
2018,12,22,01,37,8.90
2018,12,22,01,38,11.90
2018,12,22,01,39,11.80
2018,12,22,01,40,8.30
2018,12,22,01,41,7.60
2018,12,22,01,42,8.50
2018,12,22,01,43,6.30
2018,12,22,01,44,9.90
2018,12,22,01,45,13.60
2018,12,22,01,46,9.30
2018,12,22,01,47,11.30
2018,12,22,01,48,15.40
2018,12,22,01,49,14.80
2018,12,22,01,50,16.10
2018,12,22,01,51,11.60
2018,12,22,01,52,21.60
2018,12,22,01,53,14.10
2018,12,22,01,54,13.60
2018,12,22,01,55,16.40
2018,12,22,01,56,7.00
2018,12,22,01,57,5.10
2018,12,22,01,58,14.40
2018,12,22,01,59,13.40
2018,12,22,02,00,6.40
2018,12,22,02,01,5.50
2018,12,22,02,02,7.80
2018,12,22,02,03,8.60
2018,12,22,02,04,6.30
2018,12,22,02,05,7.00
2018,12,22,02,06,8.20
2018,12,22,02,07,12.60
2018,12,22,02,08,15.40
2018,12,22,02,09,4.70
2018,12,22,02,10,14.50
2018,12,22,02,11,11.80
2018,12,22,02,12,3.70
2018,12,22,02,13,3.50
2018,12,22,02,14,6.50
2018,12,22,02,15,9.00
2018,12,22,02,16,11.60
2018,12,22,02,17,12.10
2018,12,22,02,18,15.90
2018,12,22,02,19,10.70
2018,12,22,02,20,11.50
2018,12,22,02,21,13.00
2018,12,22,02,22,17.40
2018,12,22,02,23,14.30
2018,12,22,02,24,11.40
2018,12,22,02,25,4.40
2018,12,22,02,26,13.90
2018,12,22,02,27,13.20
2018,12,22,02,28,6.70
2018,12,22,02,29,1.70
2018,12,22,02,30,17.30
2018,12,22,02,31,12.00
2018,12,22,02,32,11.30
2018,12,22,02,33,10.60
2018,12,22,02,34,8.00
2018,12,22,02,35,13.70
2018,12,22,02,36,8.70
2018,12,22,02,37,10.50
2018,12,22,02,38,11.20
2018,12,22,02,39,6.70
2018,12,22,02,40,15.70
2018,12,22,02,41,13.10
2018,12,22,02,42,12.50
2018,12,22,02,43,9.90
2018,12,22,02,44,6.00
2018,12,22,02,45,14.10
2018,12,22,02,46,10.50
2018,12,22,02,47,12.10
2018,12,22,02,48,11.20
2018,12,22,02,49,11.90
2018,12,22,02,50,12.10
2018,12,22,02,51,13.60
2018,12,22,02,52,14.40
2018,12,22,02,53,16.60
2018,12,22,02,54,10.20
2018,12,22,02,55,6.60
2018,12,22,02,56,4.90
2018,12,22,02,57,5.10
2018,12,22,02,58,4.50
2018,12,22,02,59,7.20
2018,12,22,03,00,5.20
2018,12,22,03,01,6.40
2018,12,22,03,02,9.70
2018,12,22,03,03,8.50
2018,12,22,03,04,17.60
2018,12,22,03,05,14.30
2018,12,22,03,06,4.90
2018,12,22,03,07,11.70
2018,12,22,03,08,6.00
2018,12,22,03,09,16.40
2018,12,22,03,10,9.50
2018,12,22,03,11,10.50
2018,12,22,03,12,15.10
2018,12,22,03,13,17.50
2018,12,22,03,14,5.00
2018,12,22,03,15,14.60
2018,12,22,03,16,18.70
2018,12,22,03,17,18.20
2018,12,22,03,18,9.90
2018,12,22,03,19,13.00
2018,12,22,03,20,7.80
2018,12,22,03,21,12.20
2018,12,22,03,22,18.40
2018,12,22,03,23,14.90
2018,12,22,03,24,10.80
2018,12,22,03,25,9.40
2018,12,22,03,26,13.60
2018,12,22,03,27,11.50
2018,12,22,03,28,8.20
2018,12,22,03,29,10.10
2018,12,22,03,30,9.20
2018,12,22,03,31,12.70
2018,12,22,03,32,12.20
2018,12,22,03,33,11.60
2018,12,22,03,34,12.50
2018,12,22,03,35,16.40
2018,12,22,03,36,13.20
2018,12,22,03,37,15.00
2018,12,22,03,38,9.80
2018,12,22,03,39,6.90
2018,12,22,03,40,8.50
2018,12,22,03,41,6.10
2018,12,22,03,42,6.60
2018,12,22,03,43,11.80
2018,12,22,03,44,14.10
2018,12,22,03,45,12.00
2018,12,22,03,46,11.30
2018,12,22,03,47,9.00
2018,12,22,03,48,13.30
2018,12,22,03,49,9.60
2018,12,22,03,50,13.20
2018,12,22,03,51,11.00
2018,12,22,03,52,5.50
2018,12,22,03,53,15.50
2018,12,22,03,54,13.80
2018,12,22,03,55,8.40
2018,12,22,03,56,13.80
2018,12,22,03,57,11.50
2018,12,22,03,58,17.00
2018,12,22,03,59,16.00
2018,12,22,04,00,15.50
2018,12,22,04,01,17.30
2018,12,22,04,02,21.30
2018,12,22,04,03,17.40
2018,12,22,04,04,15.20
2018,12,22,04,05,23.60
2018,12,22,04,06,19.80
2018,12,22,04,07,20.80
2018,12,22,04,08,10.50
2018,12,22,04,09,13.70
2018,12,22,04,10,17.20
2018,12,22,04,11,17.40
2018,12,22,04,12,16.50
2018,12,22,04,13,22.50
2018,12,22,04,14,14.10
2018,12,22,04,15,14.40
2018,12,22,04,16,13.70
2018,12,22,04,17,13.40
2018,12,22,04,18,10.80
2018,12,22,04,19,15.20
2018,12,22,04,20,17.00
2018,12,22,04,21,19.60
2018,12,22,04,22,20.20
2018,12,22,04,23,14.00
2018,12,22,04,24,14.30
2018,12,22,04,25,17.00
2018,12,22,04,26,17.90
2018,12,22,04,27,15.40
2018,12,22,04,28,24.50
2018,12,22,04,29,15.00
2018,12,22,04,30,19.80
2018,12,22,04,31,17.10
2018,12,22,04,32,11.00
2018,12,22,04,33,7.90
2018,12,22,04,34,13.30
2018,12,22,04,35,7.60
2018,12,22,04,36,11.40
2018,12,22,04,37,15.90
2018,12,22,04,38,12.50
2018,12,22,04,39,17.90
2018,12,22,04,40,16.00
2018,12,22,04,41,12.20
2018,12,22,04,42,9.30
2018,12,22,04,43,11.30
2018,12,22,04,44,12.80
2018,12,22,04,45,13.50
2018,12,22,04,46,11.00
2018,12,22,04,47,13.80
2018,12,22,04,48,12.50
2018,12,22,04,49,15.60
2018,12,22,04,50,17.70
2018,12,22,04,51,9.50
2018,12,22,04,52,11.20
2018,12,22,04,53,10.70
2018,12,22,04,54,13.00
2018,12,22,04,55,14.60
2018,12,22,04,56,15.10
2018,12,22,04,57,14.80
2018,12,22,04,58,13.10
2018,12,22,04,59,12.40
2018,12,22,05,00,15.10
2018,12,22,05,01,9.30
2018,12,22,05,02,8.20
2018,12,22,05,03,9.00
2018,12,22,05,04,9.80
2018,12,22,05,05,4.50
2018,12,22,05,06,4.20
2018,12,22,05,07,11.10
2018,12,22,05,08,15.80
2018,12,22,05,09,17.00
2018,12,22,05,10,11.30
2018,12,22,05,11,14.10
2018,12,22,05,12,18.00
2018,12,22,05,13,18.50
2018,12,22,05,14,15.30
2018,12,22,05,15,15.70
2018,12,22,05,16,10.20
2018,12,22,05,17,14.10
2018,12,22,05,18,9.70
2018,12,22,05,19,7.00
2018,12,22,05,20,9.10
2018,12,22,05,21,10.60
2018,12,22,05,22,6.90
2018,12,22,05,23,9.40
2018,12,22,05,24,15.70
2018,12,22,05,25,8.70
2018,12,22,05,26,13.00
2018,12,22,05,27,11.40
2018,12,22,05,28,11.10
2018,12,22,05,29,9.80
2018,12,22,05,30,12.90
2018,12,22,05,31,7.80
2018,12,22,05,32,9.50
2018,12,22,05,33,14.40
2018,12,22,05,34,6.70
2018,12,22,05,35,14.70
2018,12,22,05,36,4.60
2018,12,22,05,37,7.90
2018,12,22,05,38,9.30
2018,12,22,05,39,8.50
2018,12,22,05,40,3.00
2018,12,22,05,41,4.80
2018,12,22,05,42,4.20
2018,12,22,05,43,5.20
2018,12,22,05,44,6.40
2018,12,22,05,45,11.60
2018,12,22,05,46,9.10
2018,12,22,05,47,10.20
2018,12,22,05,48,14.40
2018,12,22,05,49,10.10
2018,12,22,05,50,4.30
2018,12,22,05,51,6.80
2018,12,22,05,52,9.80
2018,12,22,05,53,10.90
2018,12,22,05,54,9.20
2018,12,22,05,55,5.70
2018,12,22,05,56,3.40
2018,12,22,05,57,10.50
2018,12,22,05,58,6.80
2018,12,22,05,59,21.30
2018,12,22,06,00,16.50
2018,12,22,06,01,9.60
2018,12,22,06,02,9.40
2018,12,22,06,03,3.50
2018,12,22,06,04,5.50
2018,12,22,06,05,7.20
2018,12,22,06,06,5.50
2018,12,22,06,07,7.20
2018,12,22,06,08,12.50
2018,12,22,06,09,10.20
2018,12,22,06,10,16.30
2018,12,22,06,11,12.70
2018,12,22,06,12,17.40
2018,12,22,06,13,12.50
2018,12,22,06,14,9.20
2018,12,22,06,15,11.50
2018,12,22,06,16,12.40
2018,12,22,06,17,26.40
2018,12,22,06,18,19.50
2018,12,22,06,19,21.90
2018,12,22,06,20,17.30
2018,12,22,06,21,13.80
2018,12,22,06,22,12.90
2018,12,22,06,23,10.70
2018,12,22,06,24,15.80
2018,12,22,06,25,18.70
2018,12,22,06,26,22.10
2018,12,22,06,27,14.90
2018,12,22,06,28,17.60
2018,12,22,06,29,14.60
2018,12,22,06,30,15.60
2018,12,22,06,31,9.30
2018,12,22,06,32,8.20
2018,12,22,06,33,13.80
2018,12,22,06,34,12.20
2018,12,22,06,35,9.00
2018,12,22,06,36,7.70
2018,12,22,06,37,17.40
2018,12,22,06,38,10.90
2018,12,22,06,39,17.40
2018,12,22,06,40,15.90
2018,12,22,06,41,17.90
2018,12,22,06,42,18.70
2018,12,22,06,43,22.00
2018,12,22,06,44,15.50
2018,12,22,06,45,21.40
2018,12,22,06,46,14.90
2018,12,22,06,47,14.50
2018,12,22,06,48,8.90
2018,12,22,06,49,11.70
2018,12,22,06,50,22.20
2018,12,22,06,51,13.60
2018,12,22,06,52,13.30
2018,12,22,06,53,19.10
2018,12,22,06,54,24.30
2018,12,22,06,55,18.20
2018,12,22,06,56,14.40
2018,12,22,06,57,11.40
2018,12,22,06,58,13.00
2018,12,22,06,59,13.30
2018,12,22,07,00,15.60
2018,12,22,07,01,22.20
2018,12,22,07,02,18.60
2018,12,22,07,03,19.00
2018,12,22,07,04,24.30
2018,12,22,07,05,18.60
2018,12,22,07,06,9.50
2018,12,22,07,07,15.40
2018,12,22,07,08,14.50
2018,12,22,07,09,11.50
2018,12,22,07,10,7.80
2018,12,22,07,11,1.00
2018,12,22,07,12,13.30
2018,12,22,07,13,18.30
2018,12,22,07,14,16.00
2018,12,22,07,15,13.20
2018,12,22,07,16,11.00
2018,12,22,07,17,15.20
2018,12,22,07,18,10.30
2018,12,22,07,19,13.30
2018,12,22,07,20,18.60
2018,12,22,07,21,12.40
2018,12,22,07,22,11.70
2018,12,22,07,23,12.20
2018,12,22,07,24,13.30
2018,12,22,07,25,14.70
2018,12,22,07,26,11.70
2018,12,22,07,27,17.00
2018,12,22,07,28,9.20
2018,12,22,07,29,2.90
2018,12,22,07,30,4.60
2018,12,22,07,31,5.80
2018,12,22,07,32,8.10
2018,12,22,07,33,9.40
2018,12,22,07,34,12.50
2018,12,22,07,35,18.10
2018,12,22,07,36,15.50
2018,12,22,07,37,16.30
2018,12,22,07,38,14.10
2018,12,22,07,39,12.60
2018,12,22,07,40,7.60
2018,12,22,07,41,14.80
2018,12,22,07,42,13.20
2018,12,22,07,43,12.90
2018,12,22,07,44,10.20
2018,12,22,07,45,16.90
2018,12,22,07,46,16.70
2018,12,22,07,47,13.40
2018,12,22,07,48,11.40
2018,12,22,07,49,8.90
2018,12,22,07,50,12.80
2018,12,22,07,51,17.00
2018,12,22,07,52,18.40
2018,12,22,07,53,24.40
2018,12,22,07,54,16.90
2018,12,22,07,55,17.40
2018,12,22,07,56,9.80
2018,12,22,07,57,13.70
2018,12,22,07,58,12.30
2018,12,22,07,59,17.10
2018,12,22,08,00,16.20
2018,12,22,08,01,23.70
2018,12,22,08,02,17.10
2018,12,22,08,03,16.60
2018,12,22,08,04,11.60
2018,12,22,08,05,22.00
2018,12,22,08,06,19.30
2018,12,22,08,07,14.50
2018,12,22,08,08,14.40
2018,12,22,08,09,20.90
2018,12,22,08,10,16.10
2018,12,22,08,11,15.00
2018,12,22,08,12,10.80
2018,12,22,08,13,11.30
2018,12,22,08,14,17.40
2018,12,22,08,15,12.70
2018,12,22,08,16,17.10
2018,12,22,08,17,17.50
2018,12,22,08,18,15.90
2018,12,22,08,19,5.50
2018,12,22,08,20,11.80
2018,12,22,08,21,13.40
2018,12,22,08,22,12.50
2018,12,22,08,23,16.70
2018,12,22,08,24,11.00
2018,12,22,08,25,9.30
2018,12,22,08,26,18.30
2018,12,22,08,27,13.70
2018,12,22,08,28,7.20
2018,12,22,08,29,8.20
2018,12,22,08,30,8.40
2018,12,22,08,31,8.50
2018,12,22,08,32,13.70
2018,12,22,08,33,8.50
2018,12,22,08,34,17.60
2018,12,22,08,35,18.40
2018,12,22,08,36,15.00
2018,12,22,08,37,17.20
2018,12,22,08,38,15.20
2018,12,22,08,39,15.90
2018,12,22,08,40,11.60
2018,12,22,08,41,10.90
2018,12,22,08,42,12.10
2018,12,22,08,43,12.80
2018,12,22,08,44,8.10
2018,12,22,08,45,4.90
2018,12,22,08,46,7.10
2018,12,22,08,47,12.50
2018,12,22,08,48,18.60
2018,12,22,08,49,12.40
2018,12,22,08,50,12.40
2018,12,22,08,51,27.40
2018,12,22,08,52,17.30
2018,12,22,08,53,18.40
2018,12,22,08,54,23.80
2018,12,22,08,55,16.00
2018,12,22,08,56,15.80
2018,12,22,08,57,14.00
2018,12,22,08,58,25.60
2018,12,22,08,59,13.10
2018,12,22,09,00,14.00
2018,12,22,09,01,12.90
2018,12,22,09,02,16.70
2018,12,22,09,03,13.40
2018,12,22,09,04,15.10
2018,12,22,09,05,11.40
2018,12,22,09,06,16.80
2018,12,22,09,07,14.60
2018,12,22,09,08,16.70
2018,12,22,09,09,13.90
2018,12,22,09,10,13.20
2018,12,22,09,11,11.70
2018,12,22,09,12,8.70
2018,12,22,09,13,6.20
2018,12,22,09,14,0.80
2018,12,22,09,15,7.80
2018,12,22,09,16,3.60
2018,12,22,09,17,4.10
2018,12,22,09,18,8.00
2018,12,22,09,19,0.50
2018,12,22,09,20,2.20
2018,12,22,09,21,8.50
2018,12,22,09,22,6.10
2018,12,22,09,23,8.60
2018,12,22,09,24,9.70
2018,12,22,09,25,15.40
2018,12,22,09,26,16.20
2018,12,22,09,27,8.30
2018,12,22,09,28,11.80
2018,12,22,09,29,18.20
2018,12,22,09,30,13.30
2018,12,22,09,31,12.80
2018,12,22,09,32,15.60
2018,12,22,09,33,10.00
2018,12,22,09,34,8.60
2018,12,22,09,35,15.50
2018,12,22,09,36,18.40
2018,12,22,09,37,12.90
2018,12,22,09,38,12.30
2018,12,22,09,39,14.80
2018,12,22,09,40,20.00
2018,12,22,09,41,10.40
2018,12,22,09,42,7.00
2018,12,22,09,43,8.20
2018,12,22,09,44,11.40
2018,12,22,09,45,16.10
2018,12,22,09,46,12.50
2018,12,22,09,47,15.20
2018,12,22,09,48,19.00
2018,12,22,09,49,19.00
2018,12,22,09,50,22.40
2018,12,22,09,51,22.10
2018,12,22,09,52,18.80
2018,12,22,09,53,15.20
2018,12,22,09,54,17.50
2018,12,22,09,55,13.80
2018,12,22,09,56,12.70
2018,12,22,09,57,15.90
2018,12,22,09,58,11.50
2018,12,22,09,59,11.00
2018,12,22,10,00,5.50
2018,12,22,10,01,15.30
2018,12,22,10,02,13.40
2018,12,22,10,03,19.10
2018,12,22,10,04,15.50
2018,12,22,10,05,14.90
2018,12,22,10,06,9.90
2018,12,22,10,07,8.60
2018,12,22,10,08,17.30
2018,12,22,10,09,10.40
2018,12,22,10,10,14.30
2018,12,22,10,11,10.80
2018,12,22,10,12,15.30
2018,12,22,10,13,18.10
2018,12,22,10,14,11.10
2018,12,22,10,15,12.00
2018,12,22,10,16,14.30
2018,12,22,10,17,14.00
2018,12,22,10,18,7.90
2018,12,22,10,19,7.80
2018,12,22,10,20,14.30
2018,12,22,10,21,7.20
2018,12,22,10,22,5.10
2018,12,22,10,23,11.80
2018,12,22,10,24,14.90
2018,12,22,10,25,10.60
2018,12,22,10,26,16.00
2018,12,22,10,27,9.20
2018,12,22,10,28,12.90
2018,12,22,10,29,12.90
2018,12,22,10,30,10.30
2018,12,22,10,31,10.60
2018,12,22,10,32,1.70
2018,12,22,10,33,0.00
2018,12,22,10,34,14.40
2018,12,22,10,35,12.40
2018,12,22,10,36,19.90
2018,12,22,10,37,10.30
2018,12,22,10,38,18.70
2018,12,22,10,39,16.30
2018,12,22,10,40,16.70
2018,12,22,10,41,18.40
2018,12,22,10,42,19.70
2018,12,22,10,43,13.60
2018,12,22,10,44,10.20
2018,12,22,10,45,10.30
2018,12,22,10,46,7.20
2018,12,22,10,47,8.50
2018,12,22,10,48,10.10
2018,12,22,10,49,17.50
2018,12,22,10,50,9.60
2018,12,22,10,51,13.80
2018,12,22,10,52,8.80
2018,12,22,10,53,2.10
2018,12,22,10,54,7.50
2018,12,22,10,55,11.10
2018,12,22,10,56,23.10
2018,12,22,10,57,20.90
2018,12,22,10,58,19.10
2018,12,22,10,59,17.40
2018,12,22,11,00,18.50
2018,12,22,11,01,26.50
2018,12,22,11,02,20.20
2018,12,22,11,03,17.80
2018,12,22,11,04,15.20
2018,12,22,11,05,16.90
2018,12,22,11,06,13.40
2018,12,22,11,07,10.40
2018,12,22,11,08,9.60
2018,12,22,11,09,16.30
2018,12,22,11,10,14.10
2018,12,22,11,11,17.00
2018,12,22,11,12,12.20
2018,12,22,11,13,18.60
2018,12,22,11,14,25.20
2018,12,22,11,15,22.10
2018,12,22,11,16,15.80
2018,12,22,11,17,14.50
2018,12,22,11,18,17.80
2018,12,22,11,19,20.00
2018,12,22,11,20,18.50
2018,12,22,11,21,18.00
2018,12,22,11,22,12.20
2018,12,22,11,23,20.40
2018,12,22,11,24,16.70
2018,12,22,11,25,18.70
2018,12,22,11,26,20.10
2018,12,22,11,27,15.20
2018,12,22,11,28,22.10
2018,12,22,11,29,19.10
2018,12,22,11,30,19.30
2018,12,22,11,31,17.40
2018,12,22,11,32,19.00
2018,12,22,11,33,20.00
2018,12,22,11,34,10.50
2018,12,22,11,35,17.10
2018,12,22,11,36,16.00
2018,12,22,11,37,9.90
2018,12,22,11,38,21.50
2018,12,22,11,39,11.90
2018,12,22,11,40,14.80
2018,12,22,11,41,7.20
2018,12,22,11,42,16.60
2018,12,22,11,43,21.00
2018,12,22,11,44,22.90
2018,12,22,11,45,9.50
2018,12,22,11,46,21.00
2018,12,22,11,47,16.40
2018,12,22,11,48,13.20
2018,12,22,11,49,20.10
2018,12,22,11,50,17.10
2018,12,22,11,51,18.20
2018,12,22,11,52,18.30
2018,12,22,11,53,19.10
2018,12,22,11,54,17.90
2018,12,22,11,55,15.30
2018,12,22,11,56,17.20
2018,12,22,11,57,16.80
2018,12,22,11,58,12.30
2018,12,22,11,59,13.40
2018,12,22,12,00,13.50
2018,12,22,12,01,17.90
2018,12,22,12,02,14.50
2018,12,22,12,03,10.50
2018,12,22,12,04,15.50
2018,12,22,12,05,27.20
2018,12,22,12,06,23.80
2018,12,22,12,07,23.10
2018,12,22,12,08,23.80
2018,12,22,12,09,25.40
2018,12,22,12,10,20.10
2018,12,22,12,11,20.00
2018,12,22,12,12,19.00
2018,12,22,12,13,17.00
2018,12,22,12,14,11.60
2018,12,22,12,15,17.90
2018,12,22,12,16,18.30
2018,12,22,12,17,14.40
2018,12,22,12,18,14.80
2018,12,22,12,19,18.30
2018,12,22,12,20,27.70
2018,12,22,12,21,25.60
2018,12,22,12,22,25.60
2018,12,22,12,23,20.90
2018,12,22,12,24,13.00
2018,12,22,12,25,28.20
2018,12,22,12,26,13.60
2018,12,22,12,27,21.70
2018,12,22,12,28,13.30
2018,12,22,12,29,12.90
2018,12,22,12,30,12.00
2018,12,22,12,31,9.90
2018,12,22,12,32,18.10
2018,12,22,12,33,16.00
2018,12,22,12,34,14.20
2018,12,22,12,35,8.00
2018,12,22,12,36,11.20
2018,12,22,12,37,11.40
2018,12,22,12,38,12.90
2018,12,22,12,39,4.40
2018,12,22,12,40,17.70
2018,12,22,12,41,11.30
2018,12,22,12,42,13.90
2018,12,22,12,43,29.70
2018,12,22,12,44,29.20
2018,12,22,12,45,18.20
2018,12,22,12,46,19.30
2018,12,22,12,47,16.80
2018,12,22,12,48,26.50
2018,12,22,12,49,24.30
2018,12,22,12,50,12.40
2018,12,22,12,51,15.00
2018,12,22,12,52,15.70
2018,12,22,12,53,15.90
2018,12,22,12,54,21.20
2018,12,22,12,55,23.80
2018,12,22,12,56,24.60
2018,12,22,12,57,19.60
2018,12,22,12,58,20.80
2018,12,22,12,59,14.70
2018,12,22,13,00,17.00
2018,12,22,13,01,22.80
2018,12,22,13,02,22.90
2018,12,22,13,03,14.80
2018,12,22,13,04,25.40
2018,12,22,13,05,19.80
2018,12,22,13,06,15.20
2018,12,22,13,07,21.40
2018,12,22,13,08,17.90
2018,12,22,13,09,18.60
2018,12,22,13,10,19.30
2018,12,22,13,11,19.50
2018,12,22,13,12,19.40
2018,12,22,13,13,19.80
2018,12,22,13,14,18.60
2018,12,22,13,15,13.20
2018,12,22,13,16,8.40
2018,12,22,13,17,14.50
2018,12,22,13,18,12.70
2018,12,22,13,19,13.90
2018,12,22,13,20,11.40
2018,12,22,13,21,11.30
2018,12,22,13,22,15.80
2018,12,22,13,23,12.90
2018,12,22,13,24,23.60
2018,12,22,13,25,17.40
2018,12,22,13,26,17.10
2018,12,22,13,27,17.50
2018,12,22,13,28,21.30
2018,12,22,13,29,27.80
2018,12,22,13,30,22.10
2018,12,22,13,31,20.20
2018,12,22,13,32,17.90
2018,12,22,13,33,18.40
2018,12,22,13,34,19.80
2018,12,22,13,35,19.50
2018,12,22,13,36,13.50
2018,12,22,13,37,14.60
2018,12,22,13,38,21.90
2018,12,22,13,39,16.00
2018,12,22,13,40,20.80
2018,12,22,13,41,17.50
2018,12,22,13,42,11.90
2018,12,22,13,43,15.80
2018,12,22,13,44,12.30
2018,12,22,13,45,12.00
2018,12,22,13,46,25.70
2018,12,22,13,47,24.20
2018,12,22,13,48,19.80
2018,12,22,13,49,18.10
2018,12,22,13,50,19.50
2018,12,22,13,51,14.80
2018,12,22,13,52,11.20
2018,12,22,13,53,28.20
2018,12,22,13,54,22.40
2018,12,22,13,55,17.00
2018,12,22,13,56,21.40
2018,12,22,13,57,20.90
2018,12,22,13,58,17.10
2018,12,22,13,59,13.90
2018,12,22,14,00,16.00
2018,12,22,14,01,13.80
2018,12,22,14,02,14.10
2018,12,22,14,03,14.50
2018,12,22,14,04,16.30
2018,12,22,14,05,13.50
2018,12,22,14,06,16.80
2018,12,22,14,07,16.20
2018,12,22,14,08,16.90
2018,12,22,14,09,12.10
2018,12,22,14,10,19.00
2018,12,22,14,11,14.60
2018,12,22,14,12,19.70
2018,12,22,14,13,25.90
2018,12,22,14,14,23.50
2018,12,22,14,15,21.90
2018,12,22,14,16,17.30
2018,12,22,14,17,18.50
2018,12,22,14,18,17.20
2018,12,22,14,19,17.70
2018,12,22,14,20,19.30
2018,12,22,14,21,14.00
2018,12,22,14,22,11.90
2018,12,22,14,23,15.90
2018,12,22,14,24,19.50
2018,12,22,14,25,13.10
2018,12,22,14,26,14.30
2018,12,22,14,27,16.40
2018,12,22,14,28,26.70
2018,12,22,14,29,24.40
2018,12,22,14,30,18.80
2018,12,22,14,31,23.40
2018,12,22,14,32,22.00
2018,12,22,14,33,19.10
2018,12,22,14,34,14.90
2018,12,22,14,35,14.60
2018,12,22,14,36,13.50
2018,12,22,14,37,21.40
2018,12,22,14,38,25.00
2018,12,22,14,39,18.50
2018,12,22,14,40,19.90
2018,12,22,14,41,21.30
2018,12,22,14,42,21.00
2018,12,22,14,43,17.50
2018,12,22,14,44,17.60
2018,12,22,14,45,20.90
2018,12,22,14,46,20.60
2018,12,22,14,47,19.60
2018,12,22,14,48,13.00
2018,12,22,14,49,16.90
2018,12,22,14,50,18.90
2018,12,22,14,51,15.30
2018,12,22,14,52,18.50
2018,12,22,14,53,18.20
2018,12,22,14,54,22.90
2018,12,22,14,55,23.00
2018,12,22,14,56,15.40
2018,12,22,14,57,13.00
2018,12,22,14,58,14.00
2018,12,22,14,59,17.90
2018,12,22,15,00,13.40
2018,12,22,15,01,16.10
2018,12,22,15,02,16.10
2018,12,22,15,03,22.60
2018,12,22,15,04,17.50
2018,12,22,15,05,18.30
2018,12,22,15,06,14.40
2018,12,22,15,07,18.80
2018,12,22,15,08,22.60
2018,12,22,15,09,22.70
2018,12,22,15,10,17.60
2018,12,22,15,11,13.80
2018,12,22,15,12,13.00
2018,12,22,15,13,9.90
2018,12,22,15,14,7.80
2018,12,22,15,15,16.00
2018,12,22,15,16,19.90
2018,12,22,15,17,21.00
2018,12,22,15,18,18.90
2018,12,22,15,19,26.40
2018,12,22,15,20,31.40
2018,12,22,15,21,22.10
2018,12,22,15,22,25.10
2018,12,22,15,23,23.60
2018,12,22,15,24,15.80
2018,12,22,15,25,16.40
2018,12,22,15,26,12.80
2018,12,22,15,27,22.80
2018,12,22,15,28,23.90
2018,12,22,15,29,20.90
2018,12,22,15,30,19.40
2018,12,22,15,31,18.90
2018,12,22,15,32,17.50
2018,12,22,15,33,17.30
2018,12,22,15,34,21.40
2018,12,22,15,35,20.60
2018,12,22,15,36,21.00
2018,12,22,15,37,18.40
2018,12,22,15,38,18.40
2018,12,22,15,39,19.00
2018,12,22,15,40,21.60
2018,12,22,15,41,21.00
2018,12,22,15,42,26.90
2018,12,22,15,43,20.50
2018,12,22,15,44,17.30
2018,12,22,15,45,17.20
2018,12,22,15,46,14.80
2018,12,22,15,47,19.80
2018,12,22,15,48,28.80
2018,12,22,15,49,15.50
2018,12,22,15,50,21.40
2018,12,22,15,51,23.30
2018,12,22,15,52,19.70
2018,12,22,15,53,19.10
2018,12,22,15,54,22.20
2018,12,22,15,55,15.60
2018,12,22,15,56,20.80
2018,12,22,15,57,24.10
2018,12,22,15,58,20.50
2018,12,22,15,59,14.60
2018,12,22,16,00,21.40
2018,12,22,16,01,13.00
2018,12,22,16,02,24.20
2018,12,22,16,03,20.70
2018,12,22,16,04,18.50
2018,12,22,16,05,17.30
2018,12,22,16,06,16.60
2018,12,22,16,07,20.40
2018,12,22,16,08,17.60
2018,12,22,16,09,15.80
2018,12,22,16,10,16.60
2018,12,22,16,11,19.00
2018,12,22,16,12,21.00
2018,12,22,16,13,18.00
2018,12,22,16,14,17.80
2018,12,22,16,15,21.50
2018,12,22,16,16,23.30
2018,12,22,16,17,23.40
2018,12,22,16,18,21.00
2018,12,22,16,19,15.20
2018,12,22,16,20,15.20
2018,12,22,16,21,14.20
2018,12,22,16,22,17.50
2018,12,22,16,23,14.60
2018,12,22,16,24,8.90
2018,12,22,16,25,17.50
2018,12,22,16,26,18.10
2018,12,22,16,27,22.80
2018,12,22,16,28,28.10
2018,12,22,16,29,22.90
2018,12,22,16,30,21.60
2018,12,22,16,31,21.40
2018,12,22,16,32,17.80
2018,12,22,16,33,19.10
2018,12,22,16,34,21.00
2018,12,22,16,35,21.70
2018,12,22,16,36,30.10
2018,12,22,16,37,25.20
2018,12,22,16,38,24.60
2018,12,22,16,39,19.50
2018,12,22,16,40,17.80
2018,12,22,16,41,13.90
2018,12,22,16,42,16.50
2018,12,22,16,43,23.70
2018,12,22,16,44,19.70
2018,12,22,16,45,21.90
2018,12,22,16,46,21.70
2018,12,22,16,47,23.40
2018,12,22,16,48,16.80
2018,12,22,16,49,16.90
2018,12,22,16,50,13.40
2018,12,22,16,51,22.20
2018,12,22,16,52,18.40
2018,12,22,16,53,24.50
2018,12,22,16,54,20.30
2018,12,22,16,55,25.90
2018,12,22,16,56,20.60
2018,12,22,16,57,18.80
2018,12,22,16,58,13.30
2018,12,22,16,59,13.80
2018,12,22,17,00,15.80
2018,12,22,17,01,18.90
2018,12,22,17,02,16.00
2018,12,22,17,03,14.30
2018,12,22,17,04,17.80
2018,12,22,17,05,19.10
2018,12,22,17,06,19.10
2018,12,22,17,07,18.00
2018,12,22,17,08,22.90
2018,12,22,17,09,17.20
2018,12,22,17,10,14.70
2018,12,22,17,11,17.60
2018,12,22,17,12,15.30
2018,12,22,17,13,18.40
2018,12,22,17,14,18.20
2018,12,22,17,15,23.00
2018,12,22,17,16,14.50
2018,12,22,17,17,17.10
2018,12,22,17,18,13.50
2018,12,22,17,19,17.80
2018,12,22,17,20,16.60
2018,12,22,17,21,17.60
2018,12,22,17,22,25.60
2018,12,22,17,23,19.30
2018,12,22,17,24,15.50
2018,12,22,17,25,20.30
2018,12,22,17,26,13.20
2018,12,22,17,27,13.80
2018,12,22,17,28,17.10
2018,12,22,17,29,17.90